AUA29R EHAM-LOWI

Flight info

Callsign AUA29R
Flight time N/A
Altitude 37000
Route EDUPO Z739 DEPAD DCT LMA DCT UMUPU DCT TEDGO L607 XEBIX XEBIX1B
Aircraft A20N/M-SDE2E3FGHIRWXY/LB1

Departure

Time 2026-04-28 11:42
Airport Amsterdam Airport Schiphol (EHAM)

Arrival

Time N/A
Airport Innsbruck Airport (LOWI)
Time Latitude Longitude Altitude Speed Heading
2026-04-28 11:15 52.30476 4.76290 0 ft 0 kts 238°
2026-04-28 11:29 52.30479 4.76298 0 ft 2 kts 238°
2026-04-28 11:29 52.30488 4.76320 0 ft 2 kts 238°
2026-04-28 11:30 52.30496 4.76341 0 ft 1 kts 238°
2026-04-28 11:30 52.30516 4.76355 0 ft 0 kts 152°
2026-04-28 11:30 52.30523 4.76347 0 ft 0 kts 147°
2026-04-28 11:34 52.30520 4.76350 0 ft 3 kts 147°
2026-04-28 11:34 52.30477 4.76393 0 ft 9 kts 149°
2026-04-28 11:34 52.30396 4.76478 0 ft 16 kts 147°
2026-04-28 11:35 52.30330 4.76582 0 ft 12 kts 95°
2026-04-28 11:35 52.30327 4.76719 0 ft 12 kts 134°
2026-04-28 11:35 52.30322 4.76843 0 ft 12 kts 62°
2026-04-28 11:35 52.30388 4.77019 0 ft 23 kts 54°
2026-04-28 11:36 52.30483 4.77269 0 ft 28 kts 58°
2026-04-28 11:36 52.30586 4.77527 0 ft 26 kts 49°
2026-04-28 11:36 52.30739 4.77595 0 ft 22 kts
2026-04-28 11:36 52.30889 4.77611 0 ft 21 kts
2026-04-28 11:37 52.31039 4.77624 0 ft 23 kts
2026-04-28 11:37 52.31224 4.77645 0 ft 29 kts
2026-04-28 11:37 52.31425 4.77647 0 ft 27 kts 349°
2026-04-28 11:37 52.31560 4.77462 0 ft 24 kts 301°
2026-04-28 11:38 52.31572 4.77194 0 ft 23 kts 265°
2026-04-28 11:38 52.31561 4.76957 0 ft 18 kts 268°
2026-04-28 11:38 52.31557 4.76749 0 ft 18 kts 267°
2026-04-28 11:38 52.31549 4.76541 0 ft 17 kts 263°
2026-04-28 11:39 52.31542 4.76347 0 ft 17 kts 269°
2026-04-28 11:39 52.31534 4.76117 0 ft 22 kts 266°
2026-04-28 11:39 52.31524 4.75849 0 ft 26 kts 268°
2026-04-28 11:39 52.31514 4.75533 0 ft 29 kts 266°
2026-04-28 11:40 52.31504 4.75192 0 ft 29 kts 267°
2026-04-28 11:40 52.31492 4.74870 0 ft 24 kts 268°
2026-04-28 11:40 52.31512 4.74662 0 ft 12 kts 346°
2026-04-28 11:40 52.31609 4.74658 0 ft 15 kts
2026-04-28 11:41 52.31668 4.74787 0 ft 17 kts 86°
2026-04-28 11:41 52.31685 4.75278 0 ft 77 kts 87°
2026-04-28 11:41 52.31725 4.76492 0 ft 137 kts 87°
2026-04-28 11:41 52.31771 4.78283 274 ft 162 kts 86°
2026-04-28 11:42 52.31770 4.79958 1112 ft 148 kts 85°
2026-04-28 11:42 52.31841 4.81618 1795 ft 150 kts 83°
2026-04-28 11:42 52.31928 4.83384 2308 ft 163 kts 83°
2026-04-28 11:42 52.32006 4.85281 2762 ft 180 kts 87°
2026-04-28 11:43 52.31835 4.87401 3201 ft 203 kts 102°
2026-04-28 11:43 52.31314 4.89690 3640 ft 226 kts 109°
2026-04-28 11:43 52.30688 4.92089 4193 ft 243 kts 110°
2026-04-28 11:43 52.30018 4.94617 4990 ft 249 kts 109°
2026-04-28 11:44 52.29434 4.97199 5876 ft 250 kts 105°
2026-04-28 11:44 52.28945 4.99916 6748 ft 253 kts 104°
2026-04-28 11:44 52.28457 5.02708 7605 ft 257 kts 104°
2026-04-28 11:44 52.27989 5.05391 8414 ft 261 kts 104°
2026-04-28 11:45 52.27492 5.08236 9242 ft 264 kts 104°
2026-04-28 11:45 52.26992 5.11089 10040 ft 268 kts 104°
2026-04-28 11:45 52.26477 5.14027 10760 ft 274 kts 104°
2026-04-28 11:45 52.25934 5.17136 11181 ft 291 kts 105°
2026-04-28 11:46 52.25364 5.20384 11620 ft 306 kts 105°
2026-04-28 11:46 52.24725 5.23690 12312 ft 311 kts 110°
2026-04-28 11:46 52.23804 5.26917 13080 ft 315 kts 117°
2026-04-28 11:46 52.22636 5.29913 13762 ft 320 kts 123°
2026-04-28 11:47 52.21352 5.32887 14456 ft 325 kts 124°
2026-04-28 11:47 52.20023 5.35911 15162 ft 329 kts 124°
2026-04-28 11:47 52.18701 5.38924 15834 ft 332 kts 124°
2026-04-28 11:47 52.17359 5.41990 16490 ft 336 kts 124°
2026-04-28 11:48 52.16082 5.44912 17120 ft 339 kts 124°
2026-04-28 11:48 52.14704 5.48066 17787 ft 342 kts 123°
2026-04-28 11:48 52.13342 5.51181 18410 ft 346 kts 123°
2026-04-28 11:48 52.11945 5.54377 19029 ft 349 kts 124°
2026-04-28 11:49 52.10528 5.57618 19650 ft 352 kts 124°
2026-04-28 11:49 52.09129 5.60811 20250 ft 355 kts 124°
2026-04-28 11:49 52.07687 5.64098 20837 ft 358 kts 124°
2026-04-28 11:49 52.06224 5.67332 21385 ft 362 kts 128°
2026-04-28 11:50 52.04615 5.70497 21927 ft 366 kts 131°
2026-04-28 11:50 52.02940 5.73631 22450 ft 370 kts 131°
2026-04-28 11:50 52.01222 5.76829 22997 ft 373 kts 131°
2026-04-28 11:50 51.99537 5.79964 23505 ft 377 kts 131°
2026-04-28 11:51 51.97832 5.83133 24008 ft 380 kts 131°
2026-04-28 11:51 51.96084 5.86394 24513 ft 383 kts 131°
2026-04-28 11:51 51.94333 5.89666 24958 ft 387 kts 131°
2026-04-28 11:51 51.92548 5.92997 25414 ft 391 kts 131°
2026-04-28 11:52 51.90751 5.96344 25853 ft 394 kts 131°
2026-04-28 11:52 51.88965 5.99657 26261 ft 397 kts 131°
2026-04-28 11:52 51.87161 6.02983 26647 ft 401 kts 131°
2026-04-28 11:52 51.85335 6.06349 27046 ft 404 kts 131°
2026-04-28 11:53 51.83509 6.09710 27434 ft 407 kts 131°
2026-04-28 11:53 51.81899 6.12663 27745 ft 410 kts 131°
2026-04-28 11:53 51.79986 6.16172 28109 ft 414 kts 131°
2026-04-28 11:53 51.77924 6.19450 28436 ft 417 kts 141°
2026-04-28 11:54 51.75506 6.22041 28792 ft 420 kts 152°
2026-04-28 11:54 51.72831 6.23851 29139 ft 422 kts 162°
2026-04-28 11:54 51.69973 6.25165 29492 ft 425 kts 165°
2026-04-28 11:54 51.67131 6.26384 29804 ft 428 kts 165°
2026-04-28 11:55 51.64261 6.27609 30108 ft 431 kts 165°
2026-04-28 11:55 51.61381 6.28851 30418 ft 434 kts 165°
2026-04-28 11:55 51.58457 6.30127 30737 ft 436 kts 165°
2026-04-28 11:55 51.55513 6.31419 31121 ft 436 kts 165°
2026-04-28 11:56 51.52628 6.32688 31511 ft 434 kts 165°
2026-04-28 11:56 51.49705 6.33973 31902 ft 433 kts 165°
2026-04-28 11:56 51.46836 6.35233 32258 ft 432 kts 165°
2026-04-28 11:56 51.43961 6.36549 32598 ft 431 kts 163°
2026-04-28 11:57 51.41223 6.38097 32929 ft 431 kts 159°
2026-04-28 11:57 51.38487 6.40001 33257 ft 430 kts 155°
2026-04-28 11:57 51.35878 6.42185 33584 ft 429 kts 150°
2026-04-28 11:57 51.33351 6.44680 33879 ft 428 kts 147°
2026-04-28 11:58 51.30959 6.47438 34144 ft 427 kts 142°
2026-04-28 11:58 51.28692 6.50368 34397 ft 427 kts 141°
2026-04-28 11:58 51.26391 6.53378 34641 ft 427 kts 141°
2026-04-28 11:58 51.24141 6.56313 34873 ft 427 kts 141°
2026-04-28 11:59 51.21862 6.59278 35109 ft 426 kts 141°
2026-04-28 11:59 51.19570 6.62249 35341 ft 426 kts 141°
2026-04-28 11:59 51.17298 6.65189 35558 ft 426 kts 142°
2026-04-28 11:59 51.15239 6.67855 35706 ft 428 kts 142°
2026-04-28 12:00 51.12734 6.71104 35868 ft 429 kts 142°
2026-04-28 12:00 51.10687 6.73750 35999 ft 431 kts 142°
2026-04-28 12:00 51.08845 6.76124 36130 ft 431 kts 142°
2026-04-28 12:00 51.06672 6.78919 36287 ft 432 kts 142°
2026-04-28 12:01 51.04316 6.81946 36446 ft 433 kts 142°
2026-04-28 12:01 51.00196 6.87222 36680 ft 435 kts 142°
2026-04-28 12:01 50.98535 6.89345 36760 ft 436 kts 142°
2026-04-28 12:02 50.96285 6.92215 36883 ft 437 kts 142°
2026-04-28 12:02 50.93563 6.95686 37035 ft 438 kts 142°